Location: Aldenham
(51.6667°N, 0.3500°W)
Time: 18:30:03
(UTC+00:00)

Explorer 7 - Pass Details

Date: 22 February 2026
Orbit: 430 x 542 km, 50.2° (Epoch: 8 March)

Event Time Altitude Azimuth Distance (km) Brightness Sun altitude
Rises 13:07:03 0° 207° (SSW) 2,397 11.3 27.2°
Reaches altitude 10° 13:09:39 10° 186° (S) 1,545 10.8 27.1°
Maximum altitude 13:11:59 17° 144° (SE) 1,196 9.3 27.0°
Drops below altitude 10° 13:14:21 10° 102° (ESE) 1,580 9.2 26.9°
Sets 13:17:03 0° 81° (E) 2,479 9.9 26.8°
